Location: Newark
(48.2308°N, 120.8549°W)
Time: 23:50:42
(UTC+00:00)

Transit 2A Rocket - Pass Details

Date: 27 May 2020
Orbit: 584 x 919 km, 66.7° (Epoch: 13 July)

Event Time Altitude Azimuth Distance (km) Brightness Sun altitude
Rises 13:31:48 0° 324° (NW) 3,418 8.2 11.2°
Reaches altitude 10° 13:34:52 10° 341° (NNW) 2,529 7.7 11.7°
Maximum altitude 13:39:17 21° 29° (NNE) 1,900 7.9 12.4°
Drops below altitude 10° 13:43:51 10° 78° (ENE) 2,610 10.7 13.1°
Sets 13:47:03 0° 93° (E) 3,558 9.9 13.6°
